Pembrey Sands, United Kingdom

7:09 AM GMT on February 08, 2016 (GMT +0000)
Pembrey Sands

Weather History for EGOP - April, 2013

Change the Weather History Date:

Thursday, April 11, 2013

  Actual Average (EGFF) Record (EGFF)
Temperature  
Mean Temperature 47 °F -  
Max Temperature 52 °F 51 °F 62 °F (2007)
Min Temperature 42 °F 39 °F 33 °F (1998)
Degree Days  
Heating Degree Days 18    
Moisture  
Dew Point 43 °F    
Average Humidity 87    
Maximum Humidity 96    
Minimum Humidity 67    
Precipitation  
Precipitation 0.16 in - - ()
Sea Level Pressure  
Sea Level Pressure 29.39 in    
Wind  
Wind Speed 9 mph ()    
Max Wind Speed 17 mph    
Max Gust Speed -    
Visibility 5.0 miles    
Events      
Averages and records for this station are not official NWS values.
T = Trace of Precipitation, MM = Missing Value Source: Averaged Metar Reports

Daily Weather History Graph

Daily Weather History Graph

Search for Another Location

Airport or City:

Trip Planner

Search our weather history database for the weather conditions in past years. The results will help you decide how hot, cold, wet, or windy it might be!

Date:

Astronomy

Apr. 11, 2013 Rise Set
Actual Time 6:29 AM BST 8:08 PM BST
Civil Twilight 5:54 AM BST 8:43 PM BST
Nautical Twilight 5:11 AM BST 9:26 PM BST
Astronomical Twilight 4:24 AM BST 10:14 PM BST
Moon 6:44 AM BST (4/11) 9:41 PM BST (4/11)
Length of Visible Light 14h 48m
Length of Day
13h 38m
New Moon, 1% of the Moon is Illuminated
Apr 11
New Moon
Apr 18
First Quarter
Apr 25
Full
May 2
Last Quarter
May 10
New

Hourly Weather History & Observations

Time (BST) Temp. Windchill Dew Point Humidity Pressure Visibility Wind Dir Wind Speed Gust Speed Precip Events Conditions
12:50 AM 45 °F - 38 °F 67% 29.44 in 22 mi ENE 10.4 mph - -   Overcast
12:50 AM 44.6 °F 39.2 °F 37.4 °F 76% 29.42 in 6.2 mi ENE 10.4 mph - N/A   Overcast
1:50 AM 44.6 °F 40.2 °F 37.4 °F 76% 29.42 in 6.2 mi ENE 8.1 mph - N/A   Overcast
2:50 AM 42.8 °F 41.1 °F 39.2 °F 87% 29.42 in 6.2 mi NE 3.5 mph - N/A   Mostly Cloudy
3:50 AM 44 °F - 38 °F 73% 29.44 in 17 mi ESE 3.5 mph - -   Overcast
3:50 AM 44.6 °F 43.1 °F 39.2 °F 81% 29.42 in 6.2 mi ESE 3.5 mph - N/A   Overcast
5:50 AM 44.6 °F 39.7 °F 41.0 °F 87% 29.42 in 4.3 mi South 9.2 mph - N/A   Overcast
6:50 AM 44 °F - 41 °F 85% 29.44 in 5 mi SE 9.2 mph - -   Mostly Cloudy
6:50 AM 42.8 °F 37.5 °F 41.0 °F 93% 29.42 in 5.0 mi SE 9.2 mph - N/A   Mostly Cloudy
7:50 AM 42.8 °F 38.0 °F 41.0 °F 93% 29.42 in 2.5 mi SE 8.1 mph - N/A   Overcast
8:50 AM 44.6 °F 38.8 °F 42.8 °F 93% 29.42 in 3.7 mi SE 11.5 mph - N/A   Haze
9:50 AM 44 °F - 43 °F 96% 29.44 in 2 mi SE 11.5 mph - -   Scattered Clouds
9:50 AM 44.6 °F 38.8 °F 42.8 °F 93% 29.42 in 2.5 mi SE 11.5 mph - N/A   Light Drizzle
10:50 AM 44.6 °F 39.2 °F 42.8 °F 93% 29.42 in 2.5 mi SE 10.4 mph - N/A   Light Drizzle
11:50 AM 46.4 °F 41.1 °F 44.6 °F 93% 29.42 in 3.7 mi SE 11.5 mph - N/A   Haze
12:50 PM 48 °F - 45 °F 84% 29.41 in 5 mi SE 12.7 mph - -   Mostly Cloudy
12:50 PM 48.2 °F - 44.6 °F 87% 29.39 in 5.0 mi SE 12.7 mph - N/A   Mostly Cloudy
1:50 PM 48.2 °F - 46.4 °F 93% 29.39 in 3.1 mi South 11.5 mph - N/A   Mostly Cloudy
2:50 PM 51.8 °F - 48.2 °F 88% 29.39 in 6.2 mi SSE 17.3 mph - N/A   Mostly Cloudy
3:50 PM 51 °F - 46 °F 77% 29.38 in 7 mi South 16.1 mph - -   Scattered Clouds
3:50 PM 51.8 °F - 46.4 °F 82% 29.36 in 6.2 mi South 16.1 mph - N/A   Mostly Cloudy
4:50 PM 50.0 °F - 46.4 °F 87% 29.36 in 6.2 mi South 16.1 mph - N/A   Mostly Cloudy
5:50 PM 48.2 °F - 44.6 °F 87% 29.36 in 4.3 mi South 16.1 mph - N/A   Mostly Cloudy
6:50 PM 47 °F - 44 °F 85% 29.36 in 5 mi South 11.5 mph - -   Scattered Clouds
6:50 PM 46.4 °F 41.1 °F 44.6 °F 93% 29.36 in 5.0 mi South 11.5 mph - N/A   Mostly Cloudy
7:50 PM 44.6 °F 39.7 °F 42.8 °F 93% 29.33 in 4.3 mi SSE 9.2 mph - N/A   Mostly Cloudy
8:50 PM 46.4 °F 40.7 °F 44.6 °F 93% 29.33 in 1.9 mi SSE 12.7 mph - N/A   Mostly Cloudy
9:50 PM 46 °F - 44 °F 92% 29.35 in 3 mi South 11.5 mph - -   Scattered Clouds
9:50 PM 46.4 °F 41.1 °F 44.6 °F 93% 29.33 in 2.8 mi South 11.5 mph - N/A   Mostly Cloudy
10:50 PM 46.4 °F 41.5 °F 44.6 °F 93% 29.33 in 5.0 mi SSE 10.4 mph - N/A   Scattered Clouds
11:50 PM 46.4 °F 41.9 °F 44.6 °F 93% 29.30 in 6.2 mi ESE 9.2 mph - N/A   Scattered Clouds